Time,TemperatureF,DewpointF,PressureIn,WindDirection,WindDirectionDegrees,WindSpeedMPH,WindSpeedGustMPH,Humidity,HourlyPrecipIn,Conditions,Clouds,dailyrainin,SolarRadiationWatts/m^2,SoftwareType,DateUTC
2017-04-30 00:03:00,50.0,17.0,30.17,East,96,0.0,0.0,27,-99.99,,,-99.99,0.000000,,2017-04-30 07:03:00,
2017-04-30 00:24:00,49.0,16.0,30.17,East,96,0.0,2.0,27,-99.99,,,-99.99,0.000000,,2017-04-30 07:24:00,
2017-04-30 01:23:00,48.0,18.0,30.19,East,96,0.0,-999.0,30,-99.99,,,-99.99,,,2017-04-30 08:23:00,
2017-04-30 03:33:00,43.0,21.0,30.16,East,96,0.0,-999.0,41,-99.99,,,-99.99,,,2017-04-30 10:33:00,
2017-04-30 04:03:00,42.0,21.0,30.16,East,96,0.0,0.0,43,-99.99,,,-99.99,0.000000,,2017-04-30 11:03:00,
2017-04-30 04:24:00,42.0,21.0,30.17,East,96,0.0,-999.0,43,-99.99,,,-99.99,0.000000,,2017-04-30 11:24:00,
2017-04-30 05:03:00,41.0,22.0,30.17,East,96,0.0,2.0,47,-99.99,,,-99.99,0.000000,,2017-04-30 12:03:00,
2017-04-30 06:03:00,40.0,21.0,30.18,East,96,0.0,1.0,46,-99.99,,,-99.99,0.000000,,2017-04-30 13:03:00,
2017-04-30 06:23:00,40.0,21.0,30.19,East,96,-999.9,-999.0,47,-99.99,,,-99.99,,,2017-04-30 13:23:00,
2017-04-30 06:57:00,39.0,22.0,30.19,East,96,0.0,2.0,51,-99.99,,,-99.99,14.000000,,2017-04-30 13:57:00,
2017-04-30 07:13:00,39.0,22.0,30.19,East,96,0.0,-999.0,51,-99.99,,,-99.99,,,2017-04-30 14:13:00,
2017-04-30 07:24:00,39.0,23.0,30.21,East,96,0.0,0.0,52,-99.99,,,-99.99,21.000000,,2017-04-30 14:24:00,
2017-04-30 07:33:00,39.0,23.0,30.22,East,96,0.0,0.0,53,-99.99,,,-99.99,42.000000,,2017-04-30 14:33:00,
2017-04-30 08:13:00,43.0,25.0,30.22,East,96,0.0,2.0,49,-99.99,,,-99.99,297.000000,,2017-04-30 15:13:00,
2017-04-30 09:05:00,50.0,25.0,30.19,ESE,112,0.0,3.0,37,-99.99,,,-99.99,510.000000,,2017-04-30 16:05:00,
2017-04-30 09:34:00,55.0,25.0,30.21,ESE,111,0.0,-999.0,31,-99.99,,,-99.99,,,2017-04-30 16:34:00,
2017-04-30 12:24:00,68.0,27.0,30.14,SE,146,2.0,9.0,21,-99.99,,,-99.99,970.000000,,2017-04-30 19:24:00,
2017-04-30 13:04:00,72.0,30.0,30.12,SE,129,1.0,7.0,21,-99.99,,,-99.99,995.000000,,2017-04-30 20:04:00,
2017-04-30 15:14:00,78.0,31.0,30.09,West,264,5.0,-999.0,18,-99.99,,,-99.99,,,2017-04-30 22:14:00,
2017-04-30 15:58:00,78.0,28.0,30.09,WNW,290,5.0,-999.0,16,-99.99,,,-99.99,,,2017-04-30 22:58:00,
2017-04-30 16:25:00,77.0,27.0,30.06,West,278,10.0,-999.0,16,-99.99,,,-99.99,148.000000,,2017-04-30 23:25:00,
2017-04-30 18:44:00,71.0,34.0,30.08,WSW,240,6.0,10.0,26,-99.99,,,-99.99,141.000000,,2017-05-01 01:44:00,
2017-04-30 19:24:00,69.0,27.0,30.09,SSW,204,2.0,6.0,21,-99.99,,,-99.99,107.000000,,2017-05-01 02:24:00,
2017-04-30 20:13:00,66.0,26.0,30.12,SSW,212,1.0,6.0,22,-99.99,,,-99.99,7.000000,,2017-05-01 03:13:00,
2017-04-30 20:24:00,64.0,25.0,30.12,SW,236,1.0,5.0,23,-99.99,,,-99.99,0.000000,,2017-05-01 03:24:00,
2017-04-30 20:33:00,63.0,26.0,30.11,SW,218,2.0,-999.0,24,-99.99,,,-99.99,,,2017-05-01 03:33:00,
2017-04-30 21:14:00,61.0,26.0,30.12,West,259,2.0,6.0,26,-99.99,,,-99.99,,,2017-05-01 04:14:00,
2017-04-30 21:47:00,59.0,26.0,30.15,WSW,242,0.0,-999.0,28,-99.99,,,-99.99,,,2017-05-01 04:47:00,
2017-04-30 23:04:00,56.0,23.0,30.16,SW,226,0.0,1.0,27,-99.99,,,-99.99,0.000000,,2017-05-01 06:04:00,